Location: Aranbee
(34.0885°N, 118.2342°W)
Time: 13:53:47
(UTC+00:00)

Tiros 1 - Pass Details

Date: 27 November 2020
Orbit: 630 x 663 km, 48.4° (Epoch: 21 January)

Event Time Altitude Azimuth Distance (km) Brightness Sun altitude
Rises 22:23:43 0° 218° (SW) 2,978 12.1 22.4°
Reaches altitude 10° 22:26:05 10° 214° (SW) 2,070 11.8 22.1°
Maximum altitude 22:30:45 55° 137° (SE) 794 8.0 21.4°
Drops below altitude 10° 22:35:26 10° 60° (ENE) 2,075 9.3 20.8°
Sets 22:37:49 0° 56° (NE) 2,986 10.0 20.4°
